TimeCDT,TemperatureF,Dew PointF,Humidity,Sea Level PressureIn,VisibilityMPH,Wind Direction,Wind SpeedMPH,Gust SpeedMPH,PrecipitationIn,Events,Conditions,WindDirDegrees,DateUTC
12:51 AM,73.0,64.9,76,29.91,10.0,ENE,8.1,-,N/A,,Overcast,70,2013-07-21 05:51:00
1:51 AM,73.0,64.0,73,29.90,10.0,NE,5.8,-,N/A,,Scattered Clouds,40,2013-07-21 06:51:00
2:51 AM,73.0,63.0,71,29.91,10.0,NNE,4.6,-,N/A,,Partly Cloudy,30,2013-07-21 07:51:00
3:51 AM,72.0,61.0,68,29.90,10.0,NE,4.6,-,N/A,,Clear,40,2013-07-21 08:51:00
4:51 AM,72.0,61.0,68,29.90,10.0,NE,4.6,-,N/A,,Partly Cloudy,40,2013-07-21 09:51:00
5:51 AM,73.0,64.9,76,29.92,10.0,Calm,Calm,-,N/A,,Scattered Clouds,0,2013-07-21 10:51:00
6:51 AM,75.0,64.9,71,29.92,10.0,East,8.1,-,N/A,,Mostly Cloudy,80,2013-07-21 11:51:00
7:51 AM,77.0,66.0,69,29.92,10.0,ESE,9.2,-,N/A,,Mostly Cloudy,120,2013-07-21 12:51:00
8:51 AM,79.0,64.0,60,29.93,10.0,ESE,8.1,-,N/A,,Mostly Cloudy,120,2013-07-21 13:51:00
9:51 AM,80.1,57.9,47,29.94,10.0,SE,8.1,-,N/A,,Mostly Cloudy,130,2013-07-21 14:51:00
10:51 AM,82.0,59.0,45,29.93,10.0,Calm,Calm,-,N/A,,Mostly Cloudy,0,2013-07-21 15:51:00
11:51 AM,84.9,57.9,40,29.92,10.0,Variable,5.8,-,N/A,,Mostly Cloudy,0,2013-07-21 16:51:00
12:51 PM,86.0,59.0,40,29.91,10.0,SSE,6.9,-,N/A,,Scattered Clouds,160,2013-07-21 17:51:00
1:51 PM,87.1,59.0,39,29.89,10.0,SE,9.2,-,N/A,,Mostly Cloudy,140,2013-07-21 18:51:00
2:51 PM,89.1,60.1,38,29.86,10.0,Variable,5.8,-,N/A,,Mostly Cloudy,0,2013-07-21 19:51:00
3:51 PM,88.0,61.0,40,29.85,10.0,South,8.1,-,N/A,,Mostly Cloudy,190,2013-07-21 20:51:00
4:51 PM,88.0,63.0,43,29.82,10.0,South,15.0,23.0,N/A,,Mostly Cloudy,190,2013-07-21 21:51:00
5:51 PM,86.0,62.1,44,29.83,10.0,South,9.2,25.3,N/A,,Mostly Cloudy,180,2013-07-21 22:51:00
6:51 PM,84.9,64.9,51,29.83,10.0,SW,11.5,-,N/A,,Mostly Cloudy,220,2013-07-21 23:51:00
7:51 PM,82.9,66.0,56,29.86,10.0,WSW,9.2,-,N/A,,Overcast,250,2013-07-22 00:51:00
8:51 PM,73.9,64.0,71,29.88,10.0,North,17.3,27.6,N/A,,Overcast,10,2013-07-22 01:51:00
9:51 PM,73.0,66.0,79,29.89,10.0,NNE,10.4,-,N/A,,Overcast,30,2013-07-22 02:51:00
10:51 PM,73.0,66.0,79,29.87,10.0,East,9.2,-,N/A,,Overcast,90,2013-07-22 03:51:00
11:51 PM,73.9,66.9,79,29.86,10.0,East,9.2,-,N/A,,Overcast,100,2013-07-22 04:51:00